sat.trackr.live / text

‹ back to catalog

STARLINK-3698

NORAD 52108 · 2022-029W

PAYLOAD ACTIVE UNKNOWN

§ Identity

Operator
Country
US
Launch date
2022-03-19
Launch site
AFETR
Launch vehicle
Mass (kg)
RCS (m²)

Purposes: comms

External: N2YO · Heavens-Above · Gunter

§ Orbital elements

Epoch: 2026-05-25T03:23:02.977152Z

Period
95.44 min
Inclination
53.2128°
Eccentricity
0.0001373
Mean motion
15.08837650 rev/d
Perigee alt
538.8 km
Apogee alt
540.7 km
Semi-major
6,917.9 km
B*
2.0385e-5
RAAN
95.9155°
Arg perigee
71.1482°
Mean anomaly
288.9659°
Rev number
23,232

§ Raw data

STARLINK-36981 52108U 22029W   26145.14100668  .00000036  00000+0  20385-4 0  99952 52108  53.2128  95.9155 0001373  71.1482 288.9659 15.08837650232322

JSON: /api/v1/satellites/52108 · /tle

For live sub-satellite position, see the globe view (requires WebGL).

§ Visibility from observer

Set your observer location to see the next 7 days of passes ≥ 10°. The values pass through the URL so the page stays shareable.

No JS? Fill the form by hand. The geolocation button needs JavaScript.